Precipitable_Water
0.53 0.47 0.50 0.68 0.82 0.86 0.81 0.90 0.94 1.05 0.90 0.87 0.94 1.02 0.97 0.98 1.00 0.98 0.96 0.91 0.93 0.96 1.02 1.11 1.19 1.23 1.31 1.36 1.43 1.41 1.50 1.74 1.63 1.53 1.51 1.59 1.57 1.77 1.86 1.92 2.15 2.20 2.15 2.10
0.44 0.35 0.50 0.71 1.02 0.88 0.66 0.74 0.80 1.06 0.94 0.75 0.89 0.80 1.10 0.96 0.93 1.01 1.02 0.98 0.95 0.96 0.98 1.11 1.20 1.25 1.38 1.48 1.53 1.49 1.61 1.59 1.54 1.52 1.56 1.54 1.58 1.62 1.86 1.97 2.18 2.01 2.20 2.06
0.37 0.43 0.43 0.54 0.67 0.65 0.56 0.63 0.69 0.74 0.84 0.70 0.72 0.77 1.18 1.14 1.03 1.04 1.09 1.09 1.05 0.99 0.97 1.09 1.13 1.23 1.30 1.33 1.41 1.41 1.53 1.54 1.47 1.57 1.44 1.61 1.73 1.66 2.19 1.64 2.15 2.04 2.12 2.06
0.36 0.45 0.43 0.39 0.50 0.56 0.48 0.69 0.69 0.71 0.58 0.53 0.75 0.54 0.75 0.94 0.99 0.95 1.03 1.09 1.09 1.01 1.03 1.12 1.18 1.22 1.28 1.33 1.42 1.47 1.44 1.49 1.42 1.58 1.58 1.32 1.34 1.25 1.43 1.79 2.13 2.06 2.07 2.04
0.26 0.37 0.40 0.39 0.41 0.47 0.51 0.70 0.69 0.60 0.54 0.54 0.59 0.59 0.86 0.88 0.80 0.98 0.92 1.03 1.11 1.07 1.03 1.08 1.19 1.20 1.31 1.37 1.40 1.51 1.51 1.50 1.48 1.46 1.63 1.43 1.23 1.44 1.78 1.82 2.13 2.05 1.96 2.15
0.24 0.36 0.37 0.39 0.42 0.40 0.48 0.57 0.60 0.58 0.51 0.41 0.46 0.59 0.69 0.80 0.83 1.00 0.93 0.96 1.04 1.08 1.04 1.07 1.21 1.26 1.23 1.35 1.42 1.48 1.48 1.49 1.55 1.51 1.50 1.49 1.28 1.45 1.71 1.72 1.86 2.08 2.15 2.10
0.16 0.20 0.34 0.36 0.33 0.36 0.41 0.41 0.36 0.33 0.33 0.33 0.46 0.61 0.76 0.94 0.81 0.89 0.93 0.90 0.97 1.05 1.03 1.02 1.12 1.17 1.16 1.19 1.28 1.40 1.48 1.48 1.52 1.54 1.48 1.52 1.41 1.39 1.64 1.76 1.90 1.64 1.87 2.11
0.15 0.13 0.17 0.29 0.28 0.27 0.31 0.33 0.30 0.28 0.29 0.36 0.56 0.52 0.69 0.82 0.76 0.82 0.89 1.00 0.88 0.94 1.00 0.98 1.06 1.11 1.13 1.13 1.20 1.30 1.46 1.51 1.55 1.52 1.51 1.54 1.49 1.43 1.42 1.66 1.71 1.63 1.64 2.01
0.18 0.18 0.21 0.18 0.23 0.22 0.25 0.30 0.34 0.35 0.39 0.42 0.56 0.67 0.80 0.82 0.69 0.68 0.72 0.89 0.85 0.88 0.99 0.95 1.04 1.07 1.10 1.10 1.17 1.30 1.43 1.49 1.48 1.50 1.58 1.57 1.54 1.47 1.46 1.52 1.69 1.87 2.14 2.17
0.22 0.23 0.28 0.23 0.18 0.19 0.18 0.27 0.27 0.28 0.28 0.32 0.44 0.49 0.54 0.67 0.63 0.63 0.70 0.68 0.80 0.88 0.98 1.00 0.97 1.01 1.04 1.09 1.18 1.39 1.44 1.41 1.41 1.53 1.63 1.59 1.54 1.48 1.54 1.67 1.82 1.95 1.86 1.90
0.25 0.25 0.24 0.24 0.18 0.15 0.15 0.14 0.19 0.23 0.26 0.29 0.37 0.46 0.54 0.70 0.73 0.47 0.48 0.47 0.77 0.86 0.92 0.99 0.96 0.99 1.00 1.06 1.15 1.27 1.34 1.35 1.43 1.58 1.64 1.59 1.58 1.61 1.57 1.67 1.82 1.71 1.72 1.55
0.27 0.24 0.23 0.27 0.26 0.21 0.17 0.16 0.14 0.16 0.22 0.30 0.34 0.37 0.49 0.57 0.48 0.39 0.36 0.50 0.71 0.87 0.92 0.99 0.99 1.01 1.01 1.06 1.11 1.14 1.27 1.33 1.53 1.63 1.69 1.65 1.60 1.71 1.68 1.62 1.77 1.91 1.70 1.75
0.28 0.20 0.20 0.24 0.28 0.26 0.17 0.15 0.17 0.15 0.18 0.23 0.28 0.33 0.53 0.53 0.48 0.45 0.35 0.39 0.65 0.77 0.90 0.97 0.99 1.02 1.00 0.99 1.05 1.13 1.27 1.41 1.57 1.52 1.71 1.61 1.55 1.54 1.61 1.70 1.73 1.89 1.79 1.83
0.39 0.32 0.23 0.23 0.30 0.28 0.23 0.20 0.15 0.14 0.12 0.12 0.20 0.29 0.42 0.52 0.47 0.42 0.39 0.44 0.57 0.63 0.89 0.95 0.97 1.01 0.99 0.95 1.04 1.17 1.30 1.46 1.57 1.63 1.70 1.66 1.56 1.51 1.53 1.72 1.74 1.78 1.83 1.80
0.33 0.36 0.35 0.31 0.37 0.41 0.30 0.25 0.19 0.13 0.15 0.16 0.15 0.19 0.27 0.40 0.42 0.50 0.53 0.52 0.67 0.64 0.92 0.94 0.96 0.99 0.94 0.97 1.10 1.20 1.30 1.41 1.56 1.65 1.67 1.70 1.60 1.60 1.61 1.64 1.76 1.81 1.82 1.84
0.40 0.32 0.35 0.34 0.37 0.38 0.29 0.25 0.21 0.15 0.16 0.19 0.21 0.23 0.31 0.36 0.39 0.42 0.45 0.50 0.61 0.59 0.82 0.96 1.00 0.95 0.93 1.01 1.11 1.17 1.25 1.37 1.56 1.58 1.63 1.87 1.66 1.56 1.63 1.69 1.75 1.92 1.93 1.99
0.40 0.36 0.32 0.29 0.35 0.37 0.27 0.21 0.19 0.19 0.17 0.19 0.20 0.24 0.30 0.32 0.39 0.49 0.51 0.49 0.48 0.58 0.70 0.93 0.95 0.94 0.95 1.05 1.11 1.15 1.24 1.41 1.55 1.57 1.60 1.91 1.62 1.48 1.55 1.72 1.86 1.96 2.00 2.02
0.56 0.38 0.37 0.31 0.38 0.29 0.35 0.30 0.23 0.21 0.24 0.23 0.24 0.25 0.28 0.34 0.51 0.53 0.53 0.58 0.50 0.51 0.70 0.97 0.95 1.04 1.04 1.20 1.22 1.29 1.35 1.39 1.45 1.53 1.55 1.64 1.64 1.41 1.50 1.65 1.82 1.86 1.90 1.98
0.73 0.71 0.43 0.38 0.35 0.39 0.39 0.33 0.34 0.29 0.29 0.34 0.34 0.36 0.34 0.39 0.54 0.84 1.03 0.91 0.70 0.57 0.83 1.00 1.04 1.06 1.15 1.20 1.31 1.32 1.32 1.39 1.38 1.43 1.51 1.58 1.61 1.37 1.47 1.59 1.75 1.93 2.00 1.96
0.65 0.72 0.55 0.43 0.44 0.37 0.45 0.46 0.41 0.38 0.32 0.50 0.49 0.58 0.68 0.73 0.60 0.82 0.86 0.92 0.86 0.87 0.83 0.98 1.13 1.15 1.25 1.28 1.32 1.29 1.29 1.31 1.30 1.40 1.50 1.62 1.62 1.44 1.44 1.55 1.68 1.81 1.91 1.86
0.47 0.49 0.48 0.55 0.52 0.52 0.65 0.65 0.59 0.40 0.60 0.75 0.72 0.66 0.70 0.72 0.82 0.57 0.54 0.84 1.00 1.08 1.00 1.14 1.13 1.14 1.22 1.28 1.34 1.28 1.34 1.30 1.46 1.59 1.70 1.73 1.60 1.46 1.56 1.61 1.81 1.79 1.67 1.70
0.41 0.40 0.43 0.53 0.51 0.42 0.73 0.70 0.57 0.80 0.89 0.88 0.80 0.77 0.68 0.74 0.81 0.71 0.80 1.02 1.09 1.14 1.17 1.22 1.18 1.17 1.25 1.35 1.34 1.31 1.39 1.63 1.69 1.72 1.72 1.69 1.56 1.55 1.65 1.69 1.86 1.71 1.62 1.55
0.44 0.47 0.43 0.48 0.51 0.77 0.88 0.81 0.96 0.95 0.94 0.85 0.80 0.80 0.77 0.74 0.77 0.88 1.08 1.15 1.14 0.98 1.13 1.24 1.21 1.28 1.43 1.51 1.52 1.45 1.58 1.64 1.68 1.70 1.72 1.67 1.57 1.65 1.81 1.81 1.74 1.60 1.60 1.48
0.69 0.60 0.57 0.61 0.56 0.86 1.06 1.03 1.04 1.11 1.00 0.94 0.85 0.84 0.87 0.80 0.85 0.98 1.19 1.25 1.13 1.04 0.99 1.07 1.16 1.25 1.33 1.47 1.54 1.55 1.60 1.64 1.66 1.63 1.65 1.67 1.68 1.78 1.87 1.98 1.87 1.66 1.56 1.57
0.81 0.76 0.57 0.66 0.67 0.90 0.95 0.97 1.00 1.00 0.98 0.90 0.86 0.78 0.86 0.92 0.94 1.07 1.29 1.41 1.37 1.18 1.14 1.22 1.20 1.29 1.33 1.45 1.48 1.57 1.63 1.69 1.67 1.71 1.72 1.76 1.80 1.82 1.91 1.99 1.98 1.84 1.71 1.61
0.94 0.83 0.73 0.61 0.88 0.91 0.94 0.99 0.98 0.93 0.93 0.91 0.87 0.76 0.90 1.00 1.00 1.18 1.33 1.51 1.51 1.49 1.31 1.29 1.31 1.37 1.42 1.50 1.59 1.67 1.77 1.84 1.80 1.76 1.83 1.86 1.91 1.95 1.90 1.91 1.79 1.75 1.67 1.62
Wind_Speed
16 14 13 13 11 15 13 12 9 15 8 10 13 13 9 8 7 8 9 9 9 9 10 10 10 10 11 11 10 11 10 9 8 7 7 7 7 8 7 6 7 5 4 5
19 18 16 11 11 14 13 19 13 19 10 9 11 12 16 9 8 9 9 11 10 10 11 11 11 11 11 10 9 10 10 10 9 8 7 7 7 10 9 9 8 5 5 6
22 21 17 17 14 11 13 11 7 10 10 10 5 14 7 4 8 9 10 11 11 11 11 12 11 11 11 10 10 10 10 10 9 8 7 6 7 10 10 7 7 6 5 7
23 21 19 19 16 12 14 11 8 9 8 11 7 11 8 5 9 10 11 12 12 12 12 13 12 12 10 10 10 10 10 10 9 9 7 7 8 8 8 8 8 6 6 7
23 24 23 18 16 16 16 9 15 11 12 10 12 9 11 13 11 12 11 12 14 13 14 15 14 11 11 10 10 10 10 10 9 9 7 7 8 8 8 8 7 7 7 7
24 23 23 24 19 20 18 17 15 15 15 16 18 14 11 8 20 16 14 12 13 14 14 14 14 13 10 11 9 10 10 10 10 10 9 8 8 9 8 8 7 8 9 8
23 26 23 22 25 22 21 17 15 14 15 14 16 2 9 14 9 17 14 12 12 13 14 14 15 13 11 11 11 10 11 10 11 11 10 10 9 9 8 8 8 10 11 9
19 21 27 21 24 21 24 20 19 16 15 9 9 5 7 13 10 12 16 15 11 13 15 15 14 13 13 11 11 11 11 10 10 12 12 11 11 10 10 8 8 10 8 14
16 20 18 26 24 25 24 23 23 23 23 8 15 3 6 11 11 13 11 15 10 13 14 14 14 14 14 12 11 11 12 11 10 11 12 12 12 11 9 10 10 8 6 6
20 15 13 18 23 24 27 23 21 21 23 19 14 8 9 17 16 7 12 9 10 13 14 14 14 14 14 12 11 11 11 11 11 11 12 12 12 11 10 9 9 6 5 6
20 18 14 16 16 21 21 25 26 22 20 21 13 14 5 19 16 8 8 9 14 14 14 15 14 13 14 13 12 11 10 10 10 11 11 13 12 11 10 9 9 10 8 3
19 17 15 14 15 18 22 23 27 22 21 20 18 4 6 16 11 8 8 7 11 14 14 16 15 14 14 14 13 11 10 9 10 10 12 14 13 11 9 10 9 9 8 6
18 19 16 16 18 15 18 22 22 24 25 23 19 19 8 11 10 12 7 8 10 12 15 16 16 15 15 14 13 11 10 10 9 9 9 13 13 12 10 8 8 9 9 8
13 16 18 16 12 15 18 18 22 25 21 23 23 20 8 13 17 11 8 11 12 12 16 18 17 16 16 16 14 12 11 10 10 9 9 9 11 11 10 8 7 7 8 9
20 20 18 19 15 13 12 18 18 25 25 22 20 19 18 11 11 7 4 8 11 11 18 18 18 17 16 17 15 13 13 11 11 10 11 9 10 10 10 9 8 7 8 9
22 21 20 20 18 15 13 19 17 21 24 22 20 16 12 7 4 9 11 10 14 12 17 20 19 18 17 17 16 14 13 12 12 12 12 10 10 10 11 10 8 8 8 9
24 22 21 20 18 16 14 15 17 17 22 20 22 18 15 14 11 8 10 15 17 18 19 21 20 19 19 16 16 15 14 12 12 13 12 12 11 11 11 10 10 8 7 9
23 25 21 19 18 19 16 14 15 17 15 18 16 17 17 13 12 11 15 15 15 19 19 22 22 20 20 18 16 15 15 14 13 13 14 12 11 12 12 11 11 9 9 7
18 16 19 17 19 16 16 15 12 16 15 13 13 12 14 13 11 6 8 11 11 17 20 21 22 22 21 18 16 15 15 14 14 14 14 13 12 12 12 12 11 10 10 9
23 11 15 16 16 19 12 18 17 17 15 10 12 9 9 7 10 10 9 9 12 14 20 22 23 23 21 19 17 16 15 15 14 14 14 14 14 12 12 11 11 10 11 10
28 22 17 21 18 10 13 7 14 15 10 8 7 9 12 10 10 12 13 9 10 14 16 22 22 22 21 20 18 18 16 16 16 16 15 14 15 14 13 11 10 10 10 10
33 28 26 25 17 19 15 15 13 12 12 8 7 7 8 12 12 11 10 10 9 13 13 20 20 20 21 21 18 18 18 17 17 17 17 17 16 15 15 13 12 10 10 10
31 33 27 26 18 11 17 20 15 18 16 10 8 7 7 9 11 13 11 9 9 13 14 16 18 18 20 20 20 19 18 18 19 19 19 18 18 17 16 15 14 13 12 11
22 31 30 23 27 15 16 22 18 13 10 11 9 8 7 9 12 12 11 10 9 10 13 16 18 17 18 19 20 21 20 21 21 21 21 21 20 20 18 18 17 16 15 14
23 19 30 25 22 23 19 18 16 15 13 11 9 8 7 7 10 13 13 11 10 10 11 13 14 14 14 15 17 18 19 21 22 22 23 23 23 22 21 19 20 19 18 17
21 20 18 27 27 22 21 18 16 15 13 11 10 9 8 7 9 12 12 13 13 11 10 11 12 13 13 13 14 16 18 20 21 22 23 25 25 25 24 22 21 19 20 19
Wind_Direction
223 231 236 236 193 204 213 213 222 231 204 210 196 206 178 182 187 185 188 185 187 188 185 184 189 191 187 188 194 200 199 196 204 210 220 223 226 223 218 217 203 203 204 204
228 226 234 237 173 201 211 217 239 193 185 215 215 228 189 181 200 196 192 189 189 185 182 181 187 187 189 189 195 201 204 204 211 217 222 225 232 226 215 215 197 190 184 179
227 227 231 240 229 232 238 250 215 226 225 228 230 255 204 199 207 216 206 200 194 192 189 183 184 187 192 196 201 205 208 207 216 217 221 226 232 225 234 216 208 211 187 189
229 232 228 232 240 232 242 240 227 229 249 244 250 264 247 282 282 221 215 210 201 199 198 194 190 194 198 201 205 206 208 208 211 214 222 224 225 227 222 221 212 202 201 193
231 233 235 241 235 231 245 255 245 267 253 244 241 247 273 277 241 242 223 213 208 199 201 201 199 201 207 204 206 204 206 207 211 213 221 217 219 218 222 214 245 206 196 197
235 236 230 239 236 240 241 248 245 254 260 262 264 227 247 220 225 258 216 219 209 201 199 203 204 202 206 202 203 205 207 210 213 213 219 219 219 221 222 209 204 208 211 206
232 234 239 233 238 232 236 242 249 247 238 252 259 162 215 211 235 223 231 210 208 207 201 202 205 203 203 205 206 210 207 211 215 218 220 224 228 230 225 216 222 230 232 213
225 226 232 232 233 237 232 230 234 241 241 261 340 230 239 225 218 214 208 202 207 206 203 205 206 206 205 210 212 211 206 212 219 222 223 228 230 236 238 241 240 239 257 234
231 230 230 227 225 225 233 225 234 250 261 265 269 299 264 235 223 204 196 187 205 206 204 202 202 206 203 208 210 211 209 217 223 223 223 224 229 235 239 245 249 249 266 251
237 257 255 219 220 224 228 235 234 234 250 263 266 252 249 228 225 219 183 201 205 202 205 200 200 204 204 207 205 202 211 218 222 224 224 222 223 228 236 243 235 232 242 345
227 242 237 215 219 228 223 231 237 248 248 248 239 264 233 202 211 193 207 239 209 200 204 201 201 204 203 205 204 204 207 214 218 225 221 215 216 222 229 241 248 245 244 272
222 231 238 215 234 232 231 226 229 236 243 249 256 160 237 212 274 225 243 207 206 205 205 206 203 202 201 202 203 208 210 214 218 225 230 213 212 219 225 240 249 242 234 237
214 223 239 248 223 216 226 235 236 233 241 246 254 248 245 239 270 264 252 206 208 216 206 208 205 204 203 200 202 203 207 214 211 216 203 203 212 217 223 231 242 237 228 228
224 229 222 231 234 223 222 227 230 234 230 236 243 253 236 228 252 263 252 211 217 226 208 207 205 204 205 203 202 204 205 205 205 203 199 205 206 213 219 223 230 228 224 226
223 233 241 238 252 259 222 221 227 230 233 236 233 243 244 236 218 193 201 217 208 224 207 207 205 205 208 204 204 205 209 211 212 210 212 212 210 214 218 220 225 225 222 222
219 228 239 247 255 250 241 248 227 226 232 239 240 247 244 253 234 232 240 234 226 231 215 206 206 202 204 201 203 205 211 215 214 216 217 222 217 218 218 221 222 225 225 225
217 224 229 238 237 251 237 240 233 220 222 231 233 237 243 255 256 240 247 257 243 231 219 207 205 201 201 200 203 209 211 211 214 215 218 222 222 221 221 222 217 223 234 226
225 222 227 235 242 240 240 238 223 224 221 219 227 238 240 236 235 251 261 253 245 225 212 206 205 202 203 205 210 213 211 214 215 218 218 220 220 220 220 220 220 229 234 224
224 238 220 234 234 234 229 221 216 210 211 213 228 231 241 237 232 242 268 269 256 218 212 210 206 208 205 204 207 209 214 218 218 219 219 219 219 220 219 220 224 232 230 226
229 211 216 226 255 236 227 228 215 215 224 202 216 227 229 244 239 245 262 276 252 234 218 209 206 208 205 207 208 213 215 219 222 220 220 219 216 217 218 221 227 231 224 227
229 225 212 228 241 229 240 209 188 202 201 208 218 229 236 239 237 256 242 262 248 231 209 203 205 208 208 209 213 218 221 226 225 224 221 217 215 219 220 222 226 223 223 224
227 229 231 237 241 233 234 226 225 191 203 205 218 233 238 239 233 226 226 256 243 218 212 204 208 211 216 213 217 222 227 229 227 224 221 219 220 222 222 223 220 221 221 221
232 226 228 234 233 220 228 224 210 215 213 222 231 244 251 242 230 223 224 234 223 214 213 209 211 216 215 219 224 228 232 230 226 224 222 223 223 225 224 222 224 224 223 219
241 227 227 228 225 208 192 192 207 208 211 224 231 243 255 245 234 227 222 223 218 212 213 214 215 214 220 224 229 235 235 233 229 226 225 226 225 226 226 227 228 229 226 226
224 236 223 224 217 203 210 208 209 215 219 225 232 239 249 261 232 227 216 217 211 207 204 206 210 214 219 224 229 233 231 229 230 229 229 229 230 229 228 233 231 234 231 230
217 222 226 222 209 211 208 208 210 208 215 225 231 236 244 258 233 223 216 214 210 210 209 210 212 216 220 226 232 232 233 233 231 232 233 233 232 230 231 232 232 235 232 234